(110386) = 2001 TG3

Discovered at Palomar on 2001-10-07 by NEAT.

Orbit

Orbit type: Main Belt

Note: WebGL enabled browser required.

epoch2024-03-31.0
epoch JD2460400.5
perihelion date2023-06-28.66747
perihelion JD2460124.16747
argument of perihelion (°)108.55582
ascending node (°)256.84839
inclination (°)2.37126
eccentricity0.2388459
perihelion distance (AU)2.0331771
Tisserand w.r.t. Jupiter3.3
ΔV w.r.t. Earth (km/sec)9.0
semimajor axis (AU)2.6711767
mean anomaly (°)62.38525
mean daily motion (°/day)0.22576150
aphelion distance (AU)3.309
period (years)4.37
P-vector [x]0.99476456
P-vector [y]0.07097704
P-vector [z]0.07352362
Q-vector [x]-0.09391613
Q-vector [y]0.91858435
Q-vector [z]0.38390435
absolute magnitude16.09
phase slope0.15
uncertainty0
referenceMPEC 2024-E23
observations used725
oppositions19
arc length (days)10975
first opposition used1994
last opposition used2024
residual rms (arc-secs)0.66
perturbers coarse indicatorM-v
perturbers precise indicator003Ek
first observation date used1994-02-13.0
last observation date used2024-03-02.0
computer nameMPCLINUX
JD of orbit computation2456966.744878
perihelion JD uncertainty (days)1.9474E-05
argument of perihelion uncertainty (°)8.3049E-05
ascending node uncertainty (°)8.2887E-05
inclination uncertainty (°)2.2664E-06
eccentricity uncertainty 3.3414E-08
perihelion distance uncertainty (AU)9.0437E-08
Minimum Orbit Intersection Distances (in AU)
for orbit epoch: 2460400.5, reference: E2024-E23
Mercury1.67731
Venus1.31209
Earth1.03302
Mars0.63563
Jupiter2.1561
Saturn6.14263
Uranus15.1621
Neptune27.2642

Observations

736 total observations over interval: 1994 02 13.16627 – 2024 03 02.294390
These data are available for download (format description).

Date (UT) J2000 RA J2000 Dec Magn Location Ref
1994 02 13.16627 08 18 22.39 +16 49 11.7   691 – Steward Observatory, Kitt Peak-Spacewatch MPS 106707
1994 02 13.18853 08 18 21.28 +16 49 15.7 19.9 V 691 – Steward Observatory, Kitt Peak-Spacewatch MPS 106707
1994 02 13.21157 08 18 20.17 +16 49 19.2   691 – Steward Observatory, Kitt Peak-Spacewatch MPS 106707
1999 03 20.268380 11 15 05.359 +01 10 08.13 20.75 V 645 – Apache Point-Sloan Digital Sky Survey MPS 106707
1999 03 20.271852 11 15 05.188 +01 10 09.22 21.47   645 – Apache Point-Sloan Digital Sky Survey MPS 106707
2001 08 28.35069 01 54 52.40 +15 28 11.0 19.4 R 699 – Lowell Observatory-LONEOS MPS 44096
2001 08 28.37732 01 54 53.02 +15 28 16.2   699 – Lowell Observatory-LONEOS MPS 44096
2001 08 28.40401 01 54 53.74 +15 28 21.5   699 – Lowell Observatory-LONEOS MPS 44096
2001 08 28.43076 01 54 54.31 +15 28 26.4   699 – Lowell Observatory-LONEOS MPS 44096
2001 09 19.25708 01 56 41.38 +15 53 33.6 18.4 R 699 – Lowell Observatory-LONEOS MPS 44096
2001 09 19.28205 01 56 40.94 +15 53 31.6   699 – Lowell Observatory-LONEOS MPS 44096
2001 09 19.30702 01 56 40.48 +15 53 30.1   699 – Lowell Observatory-LONEOS MPS 44096
2001 09 19.33201 01 56 39.99 +15 53 28.9   699 – Lowell Observatory-LONEOS MPS 44096
2001 09 20.40802 01 56 20.98 +15 52 12.1 18.5   704 – Lincoln Laboratory ETS, New Mexico MPS 44096
2001 09 20.42209 01 56 20.64 +15 52 10.4 19.4   704 – Lincoln Laboratory ETS, New Mexico MPS 44096
2001 09 20.43616 01 56 20.33 +15 52 10.1 18.9   704 – Lincoln Laboratory ETS, New Mexico MPS 44096
2001 09 20.45024 01 56 19.97 +15 52 08.3 19.6   704 – Lincoln Laboratory ETS, New Mexico MPS 44096
2001 09 24.34177 01 54 54.67 +15 45 28.5 18.4   704 – Lincoln Laboratory ETS, New Mexico MPS 40705
2001 09 24.35638 01 54 54.22 +15 45 26.4 18.9   704 – Lincoln Laboratory ETS, New Mexico MPS 40705
2001 09 24.37100 01 54 53.81 +15 45 25.1 18.7   704 – Lincoln Laboratory ETS, New Mexico MPS 40705
2001 09 24.38561 01 54 53.42 +15 45 23.4 18.5   704 – Lincoln Laboratory ETS, New Mexico MPS 40705
2001 09 24.40025 01 54 52.99 +15 45 21.2 18.9   704 – Lincoln Laboratory ETS, New Mexico MPS 40705
2001 10 07.37694 01 47 15.96 +15 01 35.9 18.2   644 – Palomar Mountain/NEAT MPS 38316
2001 10 07.39812 01 47 14.97 +15 01 30.3 18.3   644 – Palomar Mountain/NEAT MPS 38316
2001 10 07.41836 01 47 14.05 +15 01 24.6 18.3   644 – Palomar Mountain/NEAT MPS 38316
2001 10 11.43079 01 44 13.34 +14 42 06.0 17.9   644 – Palomar Mountain/NEAT MPS 38316
2001 10 11.45171 01 44 12.32 +14 41 59.5 18.0   644 – Palomar Mountain/NEAT MPS 38316
2001 10 11.47281 01 44 11.28 +14 41 52.9 18.0   644 – Palomar Mountain/NEAT MPS 38316
2001 10 12.25741 01 43 35.09 +14 37 51.1 18.1 R 699 – Lowell Observatory-LONEOS MPS 38316
2001 10 12.28076 01 43 33.90 +14 37 44.0   699 – Lowell Observatory-LONEOS MPS 38316
2001 10 12.30416 01 43 32.75 +14 37 36.4   699 – Lowell Observatory-LONEOS MPS 38316
2001 10 12.32767 01 43 31.60 +14 37 28.9   699 – Lowell Observatory-LONEOS MPS 38316
2001 10 14.25043 01 42 00.47 +14 27 15.8 18.3   704 – Lincoln Laboratory ETS, New Mexico MPS 38316
2001 10 14.26613 01 41 59.69 +14 27 10.9 18.5   704 – Lincoln Laboratory ETS, New Mexico MPS 38316
2001 10 14.28234 01 41 58.86 +14 27 05.3 18.4   704 – Lincoln Laboratory ETS, New Mexico MPS 38316
2001 10 14.29801 01 41 58.06 +14 27 00.4 18.4   704 – Lincoln Laboratory ETS, New Mexico MPS 38316
2001 10 14.31366 01 41 57.28 +14 26 55.3 18.7   704 – Lincoln Laboratory ETS, New Mexico MPS 38316
2001 10 17.24999 01 39 35.36 +14 10 33.3 17.9   704 – Lincoln Laboratory ETS, New Mexico MPS 39427
2001 10 17.26555 01 39 34.57 +14 10 27.7 18.4   704 – Lincoln Laboratory ETS, New Mexico MPS 39427
2001 10 17.28126 01 39 33.76 +14 10 22.6 18.6   704 – Lincoln Laboratory ETS, New Mexico MPS 39427
2001 10 17.29675 01 39 32.98 +14 10 17.1 18.3   704 – Lincoln Laboratory ETS, New Mexico MPS 39427
2001 10 17.31269 01 39 32.17 +14 10 12.1 18.4   704 – Lincoln Laboratory ETS, New Mexico MPS 39427
2001 10 21.25696 01 36 20.81 +13 47 10.2 17.9   704 – Lincoln Laboratory ETS, New Mexico MPS 40705
2001 10 21.27834 01 36 19.72 +13 47 02.5 18.2   704 – Lincoln Laboratory ETS, New Mexico MPS 40705
2001 10 21.29598 01 36 18.83 +13 46 55.9 18.0   704 – Lincoln Laboratory ETS, New Mexico MPS 40705
2001 10 21.31240 01 36 17.98 +13 46 49.9 18.1   704 – Lincoln Laboratory ETS, New Mexico MPS 40705
2001 10 21.32903 01 36 17.12 +13 46 44.0 17.8   704 – Lincoln Laboratory ETS, New Mexico MPS 40705
2001 10 26.09484 01 32 32.94 +13 18 10.1 18.3 V 691 – Steward Observatory, Kitt Peak-Spacewatch MPS 40705
2001 10 26.11717 01 32 31.89 +13 18 02.3 18.3 V 691 – Steward Observatory, Kitt Peak-Spacewatch MPS 40705
2001 10 26.14030 01 32 30.79 +13 17 54.0 18.2 V 691 – Steward Observatory, Kitt Peak-Spacewatch MPS 40705
2001 11 09.28353 01 23 26.42 +11 58 18.2 18.5   644 – Palomar Mountain/NEAT MPS 40705
2001 11 09.30506 01 23 25.75 +11 58 11.8 18.4   644 – Palomar Mountain/NEAT MPS 40705
2001 11 09.32718 01 23 25.05 +11 58 04.9 18.3   644 – Palomar Mountain/NEAT MPS 40705
2001 11 10.30236 01 22 57.46 +11 53 17.6 19.0   704 – Lincoln Laboratory ETS, New Mexico MPS 40705
2001 11 10.30873 01 22 57.32 +11 53 15.6 18.5   644 – Palomar Mountain/NEAT MPS 40705
2001 11 10.31748 01 22 57.01 +11 53 12.9 19.0   704 – Lincoln Laboratory ETS, New Mexico MPS 40705
2001 11 10.31930 01 22 57.01 +11 53 12.8 18.9   644 – Palomar Mountain/NEAT MPS 40705
2001 11 10.32990 01 22 56.65 +11 53 09.7 18.3   644 – Palomar Mountain/NEAT MPS 40705
2001 11 10.34614 01 22 56.15 +11 53 04.8 19.2   704 – Lincoln Laboratory ETS, New Mexico MPS 40705
2001 11 10.36038 01 22 55.73 +11 53 00.2 19.0   704 – Lincoln Laboratory ETS, New Mexico MPS 40705
2001 11 11.18235 01 22 34.16 +11 49 04.9 18.5 R 699 – Lowell Observatory-LONEOS MPS 44096
2001 11 11.20593 01 22 33.48 +11 48 57.9   699 – Lowell Observatory-LONEOS MPS 44096
2001 11 11.22935 01 22 32.80 +11 48 51.9   699 – Lowell Observatory-LONEOS MPS 44096
2001 11 11.25277 01 22 32.17 +11 48 45.3   699 – Lowell Observatory-LONEOS MPS 44096
2001 11 15.43754 01 20 58.05 +11 30 22.4 19.7   608 – Haleakala-AMOS MPS 41984
2001 11 15.44845 01 20 57.83 +11 30 19.7 19.7   608 – Haleakala-AMOS MPS 41984
2001 11 15.45962 01 20 57.60 +11 30 17.1 20.2   608 – Haleakala-AMOS MPS 41984
2001 11 17.21652 01 20 27.74 +11 23 22.9 18.9   704 – Lincoln Laboratory ETS, New Mexico MPS 41984
2001 11 17.23087 01 20 27.44 +11 23 19.1 19.0   704 – Lincoln Laboratory ETS, New Mexico MPS 41984
2001 11 17.24524 01 20 27.19 +11 23 16.0 19.4   704 – Lincoln Laboratory ETS, New Mexico MPS 41984
2001 11 17.25961 01 20 26.92 +11 23 13.2 19.4   704 – Lincoln Laboratory ETS, New Mexico MPS 41984
2001 11 17.27399 01 20 26.67 +11 23 09.1 19.7   704 – Lincoln Laboratory ETS, New Mexico MPS 41984
2001 11 19.14377 01 20 01.20 +11 16 27.0 18.9   704 – Lincoln Laboratory ETS, New Mexico MPS 41984
2001 11 19.15857 01 20 00.99 +11 16 23.9 19.7   704 – Lincoln Laboratory ETS, New Mexico MPS 41984
2001 11 19.17332 01 20 00.79 +11 16 21.1 19.5   704 – Lincoln Laboratory ETS, New Mexico MPS 41984
2001 11 19.18809 01 20 00.51 +11 16 17.4 20.0   704 – Lincoln Laboratory ETS, New Mexico MPS 41984
2001 11 19.20285 01 20 00.31 +11 16 14.3 19.6   704 – Lincoln Laboratory ETS, New Mexico MPS 41984
2001 11 20.14170 01 19 50.18 +11 13 06.4 18.5 R 699 – Lowell Observatory-LONEOS MPS 44096
2001 11 20.16532 01 19 49.85 +11 13 01.9   699 – Lowell Observatory-LONEOS MPS 44096
2001 11 20.18894 01 19 49.53 +11 12 57.3   699 – Lowell Observatory-LONEOS MPS 44096
2001 11 20.21237 01 19 49.26 +11 12 52.3   699 – Lowell Observatory-LONEOS MPS 44096
2001 12 11.14501 01 23 01.03 +10 46 37.1 20.0   704 – Lincoln Laboratory ETS, New Mexico MPS 44096
2001 12 11.16032 01 23 01.30 +10 46 40.5 20.7   704 – Lincoln Laboratory ETS, New Mexico MPS 44096
2001 12 11.17560 01 23 01.83 +10 46 38.7 20.2   704 – Lincoln Laboratory ETS, New Mexico MPS 44096
2001 12 11.19089 01 23 02.25 +10 46 38.2 20.4   704 – Lincoln Laboratory ETS, New Mexico MPS 44096
2001 12 11.20617 01 23 02.63 +10 46 40.2 19.9   704 – Lincoln Laboratory ETS, New Mexico MPS 44096
2001 12 15.07045 01 25 02.16 +10 50 44.8 19.2   704 – Lincoln Laboratory ETS, New Mexico MPS 44096
